Home   Weather   Tau   Past weeks

Flag for Norway Past Weather in Tau, Norway — Yesterday and Last 2 Weeks

Now
39 °F

Clear.


Feels Like: 36 °F
Forecast: 27 / 41 °F
Wind: 5 mph from North

Location: Stavanger / Sola

Current Time: Apr 26, 2017 at 12:27:53 am

Latest Report: Apr 25, 2017 at 11:50 pm


Visibility: 10 mi

Pressure: 29.74 "Hg

Humidity: 70%

Dew Point: 30 °F

Location of TauLocation

Past Weather in Tau — Graph

°F

Tau Temperature Yesterday

Maximum temperature yesterday: 46 °F (at 5:20 pm)
Minimum temperature yesterday: 28 °F (at 4:50 am)
Average temperature yesterday: 39 °F

High & Low Weather Summary for the Past Weeks

 TemperatureHumidityPressure
High46 °F (Apr 12, 1:20 pm)100% (Apr 11, 7:50 pm)30.60 "Hg (Apr 11, 7:50 pm)
Low28 °F (Apr 17, 6:20 am)37% (Apr 25, 6:20 pm)29.47 "Hg (Apr 12, 6:50 pm)
Average40 °F78%29.93 "Hg
* Reported Apr 10 11:20 pm — Apr 25 11:20 pm, Tau, Weather by CustomWeather, © 2017

Note: Actual official high and low records may vary slightly from our data, if they occured in-between our weather recording intervals... More about our weather records

Advertising

Tau Weather History for the Previous 24 Hours

Scroll right to see more
 ConditionsComfort  
Time TempWeatherWind HumidityBarometerVisibility
11:20 pm
Tue, Apr 25
39 °FClear.No wind65%29.74 "Hg10 mi
10:50 pm41 °FPassing clouds.3 mph49%29.74 "HgN/A
10:20 pm41 °FClear.3 mph53%29.71 "Hg10 mi
9:50 pm41 °FClear.6 mph53%29.71 "Hg10 mi
8:50 pm43 °FPassing clouds.13 mph46%29.71 "HgN/A
8:20 pm45 °FPassing clouds.14 mph39%29.68 "HgN/A
7:50 pm45 °FPassing clouds.15 mph39%29.68 "HgN/A
7:20 pm45 °FPassing clouds.17 mph39%29.68 "HgN/A
6:50 pm46 °FPassing clouds.17 mph37%29.65 "HgN/A
6:20 pm46 °FPassing clouds.15 mph37%29.65 "HgN/A
5:50 pm46 °FPassing clouds.15 mph40%29.65 "HgN/A
5:20 pm46 °FPassing clouds.16 mph40%29.65 "HgN/A
4:50 pm45 °FPassing clouds.18 mph39%29.65 "HgN/A
4:20 pm45 °FSunny.16 mph42%29.62 "Hg10 mi
3:50 pm45 °FScattered clouds.17 mph42%29.62 "HgN/A
3:20 pm45 °FScattered clouds.17 mph39%29.62 "HgN/A
2:50 pm45 °FScattered clouds.17 mph39%29.62 "HgN/A
2:20 pm45 °FScattered clouds.16 mph42%29.59 "HgN/A
1:50 pm45 °FScattered clouds.17 mph39%29.59 "HgN/A
1:20 pm45 °FScattered clouds.18 mph42%29.59 "HgN/A
12:50 pm43 °FScattered clouds.17 mph42%29.59 "HgN/A
12:20 pm43 °FPassing clouds.16 mph46%29.56 "HgN/A
11:50 am43 °FPassing clouds.16 mph49%29.56 "HgN/A
11:20 am41 °FPassing clouds.17 mph61%29.56 "HgN/A
10:50 am41 °FPassing clouds.15 mph53%29.56 "HgN/A
10:20 am39 °FPassing clouds.13 mph61%29.53 "HgN/A
9:50 am39 °FPassing clouds.13 mph70%29.53 "HgN/A
9:20 am37 °FPassing clouds.12 mph75%29.53 "HgN/A
8:50 am37 °FPassing clouds.8 mph75%29.53 "HgN/A
8:20 am36 °FPassing clouds.7 mph81%29.53 "HgN/A
7:50 am34 °FPassing clouds.7 mph87%29.50 "HgN/A
7:20 am34 °FPassing clouds.6 mph87%29.50 "HgN/A
6:50 am30 °FPassing clouds.2 mph93%29.50 "HgN/A
6:20 am30 °FPassing clouds.6 mph93%29.50 "HgN/A
5:50 am28 °FPassing clouds.6 mph100%29.50 "HgN/A
4:50 am28 °FPassing clouds.2 mph93%29.50 "HgN/A
3:50 am30 °FPassing clouds.No wind100%29.50 "HgN/A
2:50 am32 °FScattered showers. Passing clouds.5 mph93%29.53 "HgN/A
2:20 am32 °FLight snow. Light fog.7 mph93%29.53 "Hg4 mi
1:50 am32 °FSnow flurries. Passing clouds.14 mph93%29.56 "HgN/A
1:20 am34 °FPassing clouds.12 mph87%29.56 "HgN/A
12:50 am34 °FPassing clouds.16 mph87%29.56 "HgN/A
12:20 am36 °FScattered showers. Passing clouds.22 mph75%29.56 "HgN/A
Weather by CustomWeather, © 2017

See weather overviewHow to use our weather pages